Torna al catalogo

SL-12 R/B(2)

AttivoGEO
NORAD 15181·ROCKET BODY·🇷🇺 Russia

Lanciato Aug 1, 1984 da Baikonur Cosmodrome

Loading…

TLE

AggiornatoSource: Space-Track

Epoca: Sep 14, 2026, 14:20 UTC

1 15181U 84078F   26257.59789444 -.00000376  00000-0  00000-0 0  9992
2 15181   8.8108 313.2201 0022150 218.3319 152.2268  1.00250245123913

Traccia SL-12 R/B(2) in tempo reale con AllMySat

Download on the App Store